SCP
0 0 0 0 0 0 0 0 0 0 0 0 0 0 0 0 0 0 0 0 0 0 1 1 1 1 1 1 1 1 1 1 1 1 1 1 1 1 1 1 0 0 0
0 0 0 0 0 0 0 0 0 0 0 0 0 0 0 0 0 0 0 0 0 0 0 1 1 1 1 1 1 1 1 1 1 1 1 0 0 0 1 0 0 0 0
0 0 0 0 0 0 0 0 0 0 0 0 0 0 0 0 0 0 0 0 0 0 0 0 1 1 1 1 1 1 1 1 1 0 0 0 0 0 0 0 0 0 0
0 0 0 0 0 0 0 0 0 0 0 0 0 0 0 0 0 0 0 0 0 0 0 0 1 1 1 1 1 1 1 1 1 0 0 0 0 0 0 0 0 0 0
0 0 0 0 0 0 0 0 0 0 0 0 0 0 0 0 0 0 0 0 0 0 0 0 0 1 1 1 1 1 1 1 1 0 0 0 0 0 0 0 0 0 0
0 0 0 0 0 0 0 0 0 0 0 0 0 0 0 0 0 0 0 0 0 0 0 0 0 0 0 1 1 1 1 1 1 0 0 0 0 0 0 0 0 0 0
0 0 0 0 0 0 0 0 0 0 0 0 0 0 0 0 0 0 0 0 0 0 0 0 0 0 0 0 1 1 1 1 1 0 0 0 0 0 0 0 0 0 0
0 0 0 0 0 0 0 0 0 0 0 0 0 0 0 0 0 0 0 0 0 0 0 0 0 0 0 0 0 1 1 1 1 0 0 0 0 0 0 0 0 0 0
0 0 0 0 0 0 0 0 0 0 0 0 0 0 0 0 0 0 0 0 0 0 0 0 0 0 0 0 0 1 1 1 0 0 0 0 1 1 1 0 0 0 0
0 0 0 0 0 0 0 0 0 0 0 0 0 0 0 0 0 0 0 0 0 0 0 0 0 0 0 0 0 0 1 0 0 0 0 0 1 1 1 0 0 0 0
0 0 0 0 0 0 0 0 0 0 0 0 0 0 0 0 0 0 0 0 0 0 0 0 0 0 0 0 0 0 0 0 0 0 0 0 0 0 0 0 0 0 0
0 0 0 0 0 0 0 0 0 0 0 0 0 0 0 0 0 0 0 0 0 0 0 0 0 0 0 0 0 0 0 0 0 0 0 0 0 0 0 0 1 0 0
1 0 0 0 0 0 0 0 0 0 0 0 0 0 0 0 0 0 0 0 0 0 0 0 0 0 0 0 0 0 0 0 0 0 0 0 0 0 0 1 1 1 1
1 1 1 0 0 0 0 0 0 0 0 0 0 0 0 0 0 0 0 0 0 0 0 0 0 0 0 0 0 0 0 0 0 0 1 1 1 1 1 1 1 1 1
1 1 1 1 1 0 0 0 0 0 0 0 0 0 0 0 0 0 0 0 0 0 0 0 0 0 0 0 0 0 0 0 0 0 1 1 1 1 1 1 1 1 1
1 1 1 1 1 1 1 0 0 0 0 0 0 0 0 0 0 0 0 0 0 0 0 0 0 0 0 0 0 0 0 0 0 0 1 1 1 1 1 1 1 1 1
1 1 1 1 1 1 1 1 0 0 0 0 0 0 0 0 0 0 0 0 0 0 0 0 0 0 0 0 0 0 0 0 0 0 0 1 1 1 1 1 1 1 1
1 1 1 1 1 1 1 1 1 0 0 0 0 0 0 0 0 0 0 0 0 0 0 0 0 0 0 0 0 0 0 0 0 0 0 0 0 1 1 1 1 1 1
1 1 1 1 1 1 1 1 1 1 0 0 0 0 0 0 0 0 0 0 0 0 0 0 0 0 0 0 0 0 0 0 0 0 0 0 0 0 0 1 1 1 1
2 2 2 1 1 1 1 1 1 1 1 1 1 0 0 0 0 0 0 0 0 0 0 0 0 0 0 0 0 0 0 0 0 0 0 0 0 0 0 0 0 0 0
2 2 2 2 2 2 2 2 2 1 1 1 1 1 0 0 0 0 0 0 0 0 0 0 0 0 0 0 0 0 0 0 0 0 0 0 0 0 0 0 0 0 0
3 3 3 3 3 3 3 3 2 2 1 1 1 1 1 0 0 0 0 0 0 0 0 0 0 0 0 0 0 0 0 0 0 0 0 0 0 0 0 0 0 0 0
4 4 4 4 4 3 3 3 3 2 2 1 1 1 1 1 1 0 0 0 0 0 0 0 0 0 0 0 0 0 0 0 0 0 0 0 0 0 0 0 0 0 0
6 6 5 5 5 4 3 3 3 2 2 1 1 1 1 1 1 0 0 0 0 1 0 0 0 0 0 0 0 0 0 0 0 0 0 0 0 0 0 0 0 0 0
8 7 6 5 5 4 3 2 2 2 1 1 1 1 1 1 1 0 0 0 1 1 1 1 1 1 0 0 0 0 0 0 0 0 0 0 0 0 0 0 0 0 0
8 8 6 5 5 4 3 2 2 2 1 1 1 1 0 0 0 0 0 0 0 1 1 1 1 1 1 1 1 0 0 0 0 0 0 0 0 0 0 0 0 0 0
Wind_Speed
6 7 14 13 13 13 12 12 12 12 12 12 12 12 13 13 12 12 12 11 11 10 10 10 9 9 9 10 10 10 10 11 11 10 9 8 8 7 6 7 7 4 7
11 9 15 14 13 13 12 12 12 12 12 12 12 12 13 12 12 11 11 10 10 11 11 10 10 10 9 9 9 9 9 9 9 9 8 7 7 7 7 8 8 4 7
13 10 12 14 13 13 12 12 12 12 11 11 11 12 12 12 11 11 10 10 10 11 11 11 11 10 10 9 9 9 8 8 7 8 6 3 4 7 8 8 8 8 8
14 10 10 14 13 12 12 11 11 11 11 11 11 11 12 12 11 10 10 10 10 10 11 11 11 10 9 9 9 9 8 6 6 6 4 3 3 7 8 8 8 8 9
12 9 10 14 13 12 12 11 11 11 10 10 10 11 11 11 11 10 10 10 10 10 10 10 10 9 9 9 9 9 8 7 7 6 4 3 3 7 8 8 7 8 9
12 10 11 14 13 12 11 11 11 11 10 10 10 11 11 11 10 10 9 9 9 9 9 9 8 7 7 8 8 9 9 8 7 4 4 3 3 7 8 8 7 8 9
11 9 10 14 13 12 11 11 11 11 11 11 11 11 11 11 10 9 9 9 9 9 8 8 6 5 5 6 8 9 8 9 6 4 4 3 3 7 8 7 7 8 9
12 10 9 14 13 12 11 11 11 11 11 11 11 12 11 11 10 9 9 8 8 8 8 7 5 3 3 4 6 8 8 7 7 5 4 3 5 8 8 7 7 8 9
11 10 7 7 9 12 12 11 11 11 12 12 12 12 12 11 10 9 8 8 8 8 8 6 4 2 2 4 5 8 8 9 5 3 4 3 7 8 8 7 7 8 8
9 9 8 6 6 6 7 11 12 12 12 13 13 12 12 11 10 9 7 8 8 8 7 5 3 1 2 3 5 8 10 9 5 4 2 4 8 9 8 8 8 8 8
9 7 8 7 7 6 6 9 10 12 12 12 11 13 10 5 5 5 6 7 7 7 6 4 2 1 2 4 5 7 7 3 4 3 2 6 8 8 8 7 7 8 8
11 10 8 8 8 7 7 5 4 5 6 5 4 6 4 4 3 5 7 8 7 6 5 4 3 3 2 2 4 5 3 4 3 2 3 6 7 8 7 7 7 7 7
13 12 11 10 9 8 5 5 3 3 3 4 6 6 4 3 3 3 2 3 3 4 2 2 2 2 2 1 2 3 4 3 2 2 3 6 7 7 7 7 7 7 7
13 14 13 12 10 8 7 6 5 4 4 4 5 6 4 3 3 3 2 3 2 2 2 2 1 2 2 2 3 4 4 3 2 2 3 7 6 7 7 7 7 7 6
14 14 14 14 12 10 8 6 7 6 6 6 5 6 6 5 5 4 3 3 3 3 3 2 1 1 3 5 5 5 5 4 3 3 3 7 7 7 8 8 7 7 6
15 15 15 15 14 12 10 8 7 7 6 6 5 7 8 7 6 5 5 4 4 4 3 2 2 3 4 5 5 5 5 4 4 4 3 5 7 7 7 8 8 7 7
17 16 16 16 15 14 12 10 8 7 7 6 6 7 9 8 8 7 5 5 5 4 3 2 3 3 4 4 5 5 4 4 4 4 3 3 4 7 8 8 8 8 7
16 16 17 15 15 15 12 10 7 7 7 6 6 5 8 8 8 7 6 6 5 4 3 4 3 3 3 4 4 3 4 4 4 3 3 3 3 3 6 9 9 8 8
17 16 17 15 16 14 12 9 7 7 7 6 5 5 6 7 7 7 6 6 5 4 4 5 3 3 3 4 4 3 3 4 4 5 3 3 3 3 3 6 9 9 8
16 16 16 13 13 12 8 5 4 5 4 4 5 5 6 5 5 5 5 6 5 4 4 4 4 3 3 3 4 3 2 3 4 4 4 3 3 3 3 4 4 5 8
14 14 13 11 11 9 7 6 5 5 4 3 4 5 5 5 5 5 4 5 5 5 6 6 4 4 2 2 4 3 3 2 3 3 4 4 4 3 3 3 2 2 3
14 13 12 11 11 10 7 6 4 4 3 3 3 4 5 5 5 5 6 5 5 4 6 6 5 4 2 2 4 3 1 2 1 1 3 4 4 3 4 4 3 3 2
11 12 10 10 9 8 7 5 4 3 2 1 2 3 5 5 5 5 5 5 5 5 6 6 7 7 4 2 3 5 4 3 2 1 3 3 4 3 3 4 4 3 3
9 9 9 9 9 8 8 7 7 5 4 5 4 3 4 4 5 6 6 6 5 4 6 7 6 5 6 4 2 2 3 4 3 1 1 2 3 4 4 4 5 5 4
11 10 8 9 8 7 7 7 6 4 3 2 2 3 4 4 4 5 6 5 6 5 6 6 5 5 5 5 4 3 2 1 2 3 2 2 2 2 3 5 5 5 4
9 9 7 8 6 6 7 6 6 6 4 3 3 3 3 2 3 5 5 6 6 5 6 6 6 7 5 5 4 4 4 4 3 3 2 2 3 3 3 3 5 5 5
Wind_Direction
155 169 160 153 142 133 126 122 119 119 118 116 114 112 109 106 101 95 89 85 82 80 80 80 84 90 94 97 96 97 102 105 105 107 110 109 105 98 92 107 114 114 116
152 164 161 155 146 138 131 126 123 122 120 119 118 117 114 111 106 100 96 92 88 85 83 83 84 88 92 95 94 92 95 101 108 112 114 113 112 107 102 111 117 117 117
149 160 159 156 150 143 137 132 129 126 124 123 122 121 121 118 112 105 102 99 95 91 88 86 86 86 88 89 88 87 88 97 111 116 115 107 116 117 113 112 114 112 111
149 154 157 157 152 148 143 138 135 132 130 128 126 126 126 122 116 111 107 105 100 97 93 91 89 88 87 87 85 83 83 95 118 129 132 144 132 119 113 107 109 110 111
148 150 157 157 155 152 149 145 141 138 137 135 134 132 129 126 121 117 113 109 105 102 98 95 93 92 89 86 80 76 76 90 111 112 116 121 118 122 113 107 108 114 115
147 149 157 158 157 155 154 152 149 146 145 144 142 137 133 130 126 122 118 115 113 109 106 102 96 91 86 81 74 68 66 85 96 96 108 114 121 127 120 114 114 118 119
145 150 158 157 158 157 156 156 155 153 152 150 146 143 139 136 131 126 123 122 121 118 116 112 105 95 82 73 66 59 61 98 97 93 97 105 126 129 125 123 122 122 124
146 151 156 158 158 159 159 159 158 157 156 154 150 148 145 142 136 132 129 129 128 127 129 128 123 105 75 63 61 62 66 95 103 97 92 97 120 120 120 124 126 127 130
147 150 149 156 158 160 160 161 160 159 160 158 155 153 150 146 141 138 138 138 136 137 142 145 144 116 42 35 49 59 74 108 105 93 94 87 108 109 111 115 121 127 132
147 153 154 153 151 152 158 162 161 162 162 161 159 157 154 151 147 147 146 148 148 149 152 157 158 116 11 12 37 60 86 100 85 71 63 93 101 103 103 108 111 120 127
157 161 163 163 158 153 156 165 163 164 166 163 162 162 155 142 141 147 159 164 161 160 161 171 198 301 343 3 24 67 94 92 91 76 67 98 103 104 103 106 111 118 124
170 173 172 172 168 164 167 150 151 157 159 155 158 155 145 149 163 168 181 175 176 177 181 200 243 292 334 4 18 64 95 105 92 84 99 108 111 111 111 112 116 121 127
176 175 176 177 174 172 160 152 155 151 155 161 166 161 155 159 174 171 179 189 196 201 214 251 272 291 286 319 56 92 108 99 85 71 92 110 118 118 117 120 123 130 136
177 180 177 177 174 174 162 165 166 165 173 180 184 175 163 165 170 177 189 204 216 229 234 248 249 257 230 195 124 119 112 99 88 73 87 104 115 121 123 123 127 130 135
181 181 178 176 174 171 166 172 175 178 185 191 188 184 175 173 178 185 195 206 221 230 236 245 248 213 124 126 134 128 115 105 94 76 78 97 104 114 120 119 118 119 125
184 181 178 178 176 172 174 177 180 185 188 192 192 190 183 181 183 188 196 203 220 229 230 208 185 147 121 120 126 127 124 119 102 91 76 82 93 100 109 114 114 115 116
183 182 180 180 177 177 180 182 182 187 187 193 197 195 187 184 187 189 195 202 212 222 216 173 161 125 111 111 123 134 135 131 120 106 93 79 81 88 96 102 105 108 110
178 181 183 182 180 182 183 184 183 186 186 194 195 192 190 186 184 187 192 202 203 195 175 159 151 122 114 119 131 147 143 138 134 125 101 90 80 77 83 92 91 94 98
179 178 182 183 180 183 181 181 181 180 184 188 186 187 191 192 185 183 190 198 192 175 167 165 152 142 136 135 138 131 138 149 153 149 138 123 111 101 84 85 83 79 82
181 179 181 179 177 175 168 163 163 172 181 181 183 188 187 192 190 185 191 194 186 170 168 161 150 144 143 146 124 100 106 146 160 160 165 155 144 134 113 96 78 72 74
178 179 178 173 171 162 160 162 164 179 184 189 194 192 190 187 184 186 197 193 185 180 177 160 143 141 129 120 93 65 28 61 137 164 162 159 168 164 141 135 114 93 73
176 177 176 173 168 165 165 162 157 150 167 187 193 193 197 193 190 194 197 195 188 181 176 168 146 137 139 136 127 110 56 3 8 149 170 175 178 169 175 175 152 133 110
164 168 167 159 151 148 144 126 109 94 90 136 204 210 209 200 195 197 197 197 194 182 181 179 161 148 154 162 147 144 152 199 246 272 211 196 179 176 185 173 175 165 151
129 126 129 129 131 136 140 148 153 162 175 197 197 207 214 204 199 196 190 192 192 189 186 187 175 162 151 160 165 156 148 153 152 198 279 250 210 192 187 179 175 175 169
116 114 117 117 122 131 137 148 151 154 174 178 184 202 213 211 207 199 192 190 189 192 194 191 179 171 165 165 163 154 140 139 134 146 202 241 256 232 200 181 171 171 175
111 113 116 120 128 137 139 146 154 162 170 174 193 207 214 205 203 201 195 197 194 192 194 194 184 182 186 177 172 162 156 158 170 154 164 207 220 239 213 189 177 176 178